Cosmos 2333 - Orbit

View from above orbital plane
View from above orbital plane
View from above satellite
View from above satellite

Ground track
Ground track

The orbit data is extracted from the following two-line orbital elements,

1 24297U 96051A   13168.49579296  .00000204  00000-0  13472-3 0  5481
2 24297 070.9027 246.7762 0025558 232.9676 212.1702 14.13082859865785
Epoch (UTC): 17 June 2013 11:53:56
Eccentricity: 0.0025558
inclination: 70.9027°
perigee height: 830 km
apogee height: 867 km
right ascension of ascending node: 246.7762°
argument of perigee: 232.9676°
revolutions per day: 14.13082859
mean anomaly at epoch: 212.1702°
orbit number at epoch: 86578

The dashed part of the orbit path shows where the satellite is in the earth's shadow,  

Developed and maintained by Chris Peat, Heavens-Above GmbH. Please read the updated FAQ before sending e-mail. Imprint. DLR